Flag for Canada Weather past 2 weeks in Sarnia, Ontario, Canada

Now
90 °F

Scattered clouds.


Feels Like: 95 °F
Forecast: 64 / 88 °F
Wind: 17 mph from Southwest

Location: Sarnia Airport

Current Time: Jul 29, 2015 at 4:10:30 PM

Latest Report: Jul 29, 2015 at 3:00 PM


Visibility: 9 mi

Pressure: 29.85 "Hg

Humidity: 52%

Dew point: 70 °F

Location of SarniaLocation

Historic Weather in Sarnia — Graph

°F

Sarnia temperature yesterday

Maximum temperature yesterday: 86 °F (at 12:00 PM)
Minimum temperature yesterday: 64 °F (at 4:00 AM)
Average temperature yesterday: 76 °F

Past Weeks' High & Low Weather Summary

 TemperatureHumidityPressure
High90 °F (Jul 29, 3:00 PM)100% (Jul 16, 4:00 AM)30.11 "Hg (Jul 16, 4:00 AM)
Low52 °F (Jul 16, 6:00 AM)40% (Jul 20, 6:00 PM)29.50 "Hg (Jul 14, 3:00 PM)
Average72 °F74%29.90 "Hg
* Reported Jul 14 3:00 PM — Jul 29 3:00 PM, Sarnia, Weather by CustomWeather, © 2015

Note: Actual official high and low records may vary slightly from our data, if they occured in-between our weather recording intervals... More about our weather records

Advertising

Sarnia weather history for previous 24 hours

 ConditionsComfort  
Time TempWeatherWind HumidityBarometerVisibility
3:00 PM
Wed, Jul 29
90 °FScattered clouds.17 mph52%29.85 "Hg9 mi
2:00 PM88 °FPassing clouds.10 mph55%29.89 "Hg9 mi
1:00 PM88 °FScattered clouds.8 mph52%29.91 "Hg9 mi
12:00 PM86 °FSunny.13 mph55%29.92 "Hg9 mi
11:00 AM82 °FPassing clouds.10 mph62%29.93 "Hg9 mi
10:00 AM81 °FSunny.6 mph66%29.95 "Hg9 mi
9:00 AM75 °FSunny.7 mph78%29.96 "Hg9 mi
8:00 AM70 °FSunny.3 mph83%29.96 "Hg9 mi
7:00 AM66 °FPassing clouds.No wind88%29.96 "Hg9 mi
6:00 AM64 °FClear.5 mph88%29.95 "Hg9 mi
5:00 AM64 °FClear.5 mph94%29.95 "Hg9 mi
4:00 AM64 °FClear.No wind94%29.97 "Hg9 mi
3:00 AM68 °FClear.3 mph88%29.98 "Hg9 mi
2:00 AM70 °FClear.2 mph83%29.98 "Hg9 mi
1:00 AM70 °FClear.3 mph83%30.00 "Hg9 mi
12:00 AM72 °FClear.2 mph83%30.00 "Hg9 mi
11:00 PM
Tue, Jul 28
73 °FClear.2 mph78%29.99 "Hg9 mi
10:00 PM77 °FClear.2 mph69%N/A9 mi
9:00 PM81 °FSunny.3 mph62%29.96 "Hg9 mi
8:00 PM82 °FSunny.6 mph62%29.96 "Hg9 mi
7:00 PM82 °FSunny.5 mph58%29.97 "Hg9 mi
6:00 PM84 °FSunny.6 mph51%29.97 "Hg9 mi
5:00 PM84 °FSunny.7 mph51%29.99 "Hg9 mi
4:00 PM86 °FSunny.9 mph46%30.00 "Hg9 mi
Weather by CustomWeather, © 2015

See weather overviewHow to use our weather pages